Location: Bad Bocklet
(50.2665°N, 10.0790°E)
Time: 16:57:09
(UTC+00:00)

Daily predictions for brighter satellites

Satellite Brightness Start Highest point End
(mag) Time Altitude Azimuth Time Altitude Azimuth Time Altitude Azimuth
SeaSat 1 2.4 16:59:14 10° SE 17:04:07 77° ENE 17:09:01 10° NNW
Resurs 1-3 3.9 17:01:04 10° SE 17:05:08 43° ENE 17:09:13 10° N
CZ-2D R/B 2.7 17:03:28 10° SSE 17:06:32 86° WSW 17:09:36 10° NNW
Resurs 01 Rocket 2.7 17:03:58 10° ESE 17:07:27 24° ENE 17:10:59 10° N
SAR-Lupe-1 4.1 17:06:13 10° SSE 17:09:42 54° ENE 17:13:13 10° N
Meteor 1-28 Rocket 4.3 17:06:52 10° N 17:10:01 41° WNW 17:13:10 10° SW
SJ-12 3.9 17:06:20 10° SSE 17:10:08 80° WSW 17:13:57 10° NNW
Cosmos 2322 4.1 17:05:38 10° NNW 17:11:20 71° WSW 17:17:01 10° SSE
USA 234 3.8 17:08:48 10° SE 17:15:17 64° SW 17:21:49 10° WNW
SL-16 R/B 3.3 17:12:35 10° NNW 17:17:08 24° NE 17:21:42 10° E
Cosmos 2227 Rocket 3.6 17:15:02 10° SE 17:18:38 18° E 17:22:14 10° ENE
Cosmos 1315 Rocket 3.1 17:15:02 10° NNW 17:18:50 68° W 17:22:35 10° S
SAR-Lupe-5 4.0 17:17:01 10° NNE 17:19:32 77° ESE 17:21:58 10° SSW
Spot 4 Rocket 4.2 17:15:10 10° SE 17:20:04 50° ENE 17:25:01 10° N
Cosmos 1674 Rocket 3.5 17:15:44 10° S 17:20:06 72° E 17:24:31 10° NNE
NOAA 6 4.4 17:15:31 10° SE 17:20:21 42° ENE 17:25:12 10° N
Cosmos 2242 Rocket 4.3 17:18:11 10° SSW 17:22:29 56° WNW 17:26:49 10° N
Cosmos 2016 Rocket 4.3 17:16:25 10° NNW 17:22:39 74° W 17:28:55 10° S
ARIANE 5 R/B 3.2 17:20:08 10° S 17:25:10 59° WSW 17:30:10 10° NNW
SAR-Lupe-4 3.5 17:22:17 10° SSE 17:25:51 87° ENE 17:29:27 10° NNW
NOSS 3-3 (A) 3.7 17:22:05 10° SSW 17:27:15 75° SE 17:33:31 10° NE
CARTOSAT-1 3.8 17:24:46 10° SE 17:28:45 43° ENE 17:32:45 10° N
Cosmos 2285 Rocket 4.0 17:30:23 10° NNW 17:36:51 84° ENE 17:43:16 10° SSE
Cosmos 2233 Rocket 4.3 17:30:45 10° NNW 17:37:02 77° W 17:43:19 10° S
USA 290 3.9 17:35:23 10° SW 17:38:20 34° WNW 17:41:17 10° N
NOSS 0 Rocket 4.4 17:33:17 10° NW 17:39:29 67° WSW 17:45:38 10° SSE
SL-19 R/B 4.4 17:34:57 10° SSE 17:41:00 63° ENE 17:46:47 10° N
CZ-4 R/B 3.2 17:42:56 13° NE 17:42:56 13° NE 17:44:05 10° NNE
ARIANE 6 FM1 Upper Stage 3.7 17:39:36 10° NNW 17:43:02 27° NNE 17:45:03 18° ENE
NOSS 3-4 (A) 3.8 17:39:03 10° NW 17:45:38 75° NE 17:53:26 10° SE
NOSS 3-4 (C) 3.8 17:39:18 10° NW 17:45:55 75° NE 17:53:44 10° SE
Cosmos 2150 Rocket 4.2 17:42:37 10° NNW 17:47:39 49° ENE 17:52:36 10° SE
Orbus 7S? 4.4 17:39:00 10° WNW 17:49:06 77° NNE 17:52:36 16° ESE
Cosmos 2298 Rocket 4.2 17:45:39 10° NNW 17:50:49 50° ENE 17:55:57 10° SE
Terra 3.7 17:52:12 12° NE 17:52:12 12° NE 17:53:31 10° NNE
Radarsat Rocket 4.0 17:49:04 10° SSE 17:54:57 88° WSW 18:01:23 10° NNW
Helios 1A Rocket 4.4 17:58:04 13° SE 17:58:04 13° SE 17:58:42 10° SSE
Cosmos 1607 4.3 17:50:26 10° SW 17:56:31 63° NW 18:02:42 10° NE
Cosmos 1455 Rocket 2.9 17:52:57 10° N 17:57:16 75° ENE 18:01:33 10° SSE
CSL-04 Rocket 4.3 17:53:36 13° ESE 17:57:28 31° ENE 18:02:04 10° N
YAOGAN 3 4.4 17:54:11 10° SSE 17:58:21 70° ENE 18:02:34 10° N
YAOGAN 1 3.1 17:55:17 10° S 17:59:29 60° W 18:03:43 10° NNW
Cosmos 44 Rocket 3.7 17:55:15 10° S 17:59:53 43° ESE 18:03:11 19° ENE
Cosmos 1975 Rocket 3.5 17:56:02 10° SSE 18:00:02 37° E 18:04:03 10° NNE
Cosmos 2228 3.1 17:56:08 10° N 18:00:11 46° ENE 18:04:14 10° SSE
COSMO-SKYMED 1 2.3 17:56:03 10° NNE 18:00:12 81° ESE 18:04:18 10° SSW
PSLV R/B 3.4 17:56:07 10° SSE 18:00:14 89° W 18:04:22 10° NNW
RESURS DK-1 4.4 17:58:34 10° N 18:00:21 13° NE 18:00:24 13° NE
Cosmos 1782 3.1 17:58:42 10° N 18:02:01 33° ENE 18:03:12 26° ESE
ATLAS 2AS CENTAUR R/B 4.1 17:56:31 10° WNW 18:02:22 28° NNW 18:07:56 11° NE
Cosmos 2297 Rocket 2.1 17:56:56 10° SSW 18:02:35 77° ESE 18:08:16 10° NNE
Lacrosse 5 rocket 2.3 18:01:22 10° WNW 18:04:33 31° NNW 18:06:24 19° NE
Cosmos 1943 4.4 18:00:36 10° NNW 18:05:05 23° NE 18:06:44 20° ENE
DNEPR-1 R/B 3.9 18:00:41 10° NW 18:05:27 70° NE 18:10:09 15° SE
Aureole 3 Rocket 3.2 18:03:43 10° NNW 18:07:40 57° W 18:10:49 10° S
IRAS Rocket 4.2 18:02:16 10° SSE 18:07:49 67° ENE 18:13:25 10° NNW
CZ-2D R/B 4.2 18:05:30 10° S 18:09:20 52° W 18:13:16 10° NNW
Okean 1 Rocket 4.5 18:08:20 10° NNW 18:12:28 40° W 18:16:32 10° SSW
CZ-4C R/B 2.6 18:09:52 10° WSW 18:14:14 51° NW 18:19:25 12° NE
Cosmos 1464 Rocket 3.9 18:10:43 10° N 18:17:06 70° ENE 18:23:22 10° SSE
Meteor 2-17 Rocket 4.3 18:14:04 10° S 18:20:05 71° E 18:26:07 10° NNE
USA 267 3.5 18:15:08 18° ENE 18:20:07 64° NNW 18:26:34 10° W
Cosmos 2344 3.9 18:13:06 10° S 18:20:13 38° ESE 18:23:43 24° ENE
Cosmos 1602 4.3 18:17:57 10° S 18:19:21 26° S 18:19:21 26° S
ERS-1 Rocket 4.1 18:22:18 24° NE 18:22:18 24° NE 18:25:48 10° N
SJ-6B 2.3 18:20:42 10° SSE 18:24:08 85° ENE 18:27:37 10° NNW
CZ-4B R/B 3.9 18:28:24 47° E 18:28:56 52° ENE 18:32:43 10° N
Cosmos 2263 Rocket 2.7 18:25:52 10° S 18:31:01 37° ESE 18:31:44 35° E
Meteor 1-31 Rocket 3.3 18:36:36 37° NNE 18:36:36 37° NNE 18:38:56 10° N
Cosmos 2237 Rocket 3.4 18:30:28 10° NW 18:35:49 43° WSW 18:41:09 10° S
ADEOS 4.1 18:43:00 38° ENE 18:43:00 38° ENE 18:47:34 10° N
Resurs 01 Rocket 2.6 18:39:21 10° S 18:43:34 46° W 18:47:50 10° NNW
Cosmos 1570 Rocket 4.4 18:38:40 10° SW 18:43:54 63° WNW 18:49:08 10° NNE
SPOT 5 2.8 18:45:52 38° SE 18:47:45 70° ENE 18:52:50 10° N
Tiangong 0.6 18:54:57 10° SW 18:55:41 13° SSW 18:55:41 13° SSW
Cosmos 2227 Rocket 2.1 18:56:14 10° SSW 19:01:53 87° WNW 19:05:16 26° NNE
SL-16 R/B 2.1 18:56:16 10° NNW 19:01:58 85° WSW 19:03:58 42° SSE
Cosmos 783 Rocket 4.3 18:57:08 10° SSW 19:02:22 72° ESE 19:03:04 63° ENE
Cosmos 1346 Rocket 4.2 19:01:02 10° SSW 19:02:49 27° SSW 19:02:49 27° SSW
Tsikada Rocket 3.8 19:02:13 10° S 19:08:16 63° E 19:14:22 10° NNE
CZ-4 R/B 3.0 19:17:56 25° NNW 19:17:56 25° NNW 19:19:37 10° NNW
Okean O Rocket 4.0 19:20:31 13° N 19:20:31 13° N 19:21:05 10° N
MetOp-B 4.4 19:18:21 55° NNE 19:18:21 55° NNE 19:22:46 10° N
ARIANE 6 FM1 Upper Stage 3.8 19:18:25 10° NW 19:21:05 40° WNW 19:21:05 40° WNW
CZ-4B R/B 3.3 19:26:08 62° N 19:26:08 62° N 19:30:36 10° NNW
Gbstr 26 Del rocket 4.4 19:19:32 10° SW 19:26:24 57° SE 19:26:28 57° SE
Terra 3.3 19:30:49 28° N 19:30:49 28° N 19:33:05 10° N
CZ-4B DEB 4.3 19:29:06 58° SSW 19:30:04 71° WSW 19:35:33 10° NNW
CSL-04 Rocket 4.5 19:35:11 28° SSW 19:37:38 47° W 19:42:44 10° NNW
MOS 1 4.3 19:41:21 76° WNW 19:41:21 76° WNW 19:46:47 10° NNW
Cosmos 44 Rocket 4.4 19:36:38 10° WSW 19:41:21 42° NW 19:41:48 41° NNW
Lacrosse 5 rocket 3.8 19:38:53 10° NW 19:39:50 16° NW 19:39:50 16° NW
Cosmos 1634 Rocket 4.0 19:35:58 10° NNW 19:42:18 77° W 19:43:02 68° SSW
Cosmos 2297 Rocket 4.1 19:42:33 10° W 19:47:14 26° NW 19:51:39 11° NNE
Cosmos 1943 3.7 19:44:10 10° NNW 19:48:32 54° NNW 19:48:32 54° NNW
ATLAS 2AS CENTAUR R/B 3.8 19:49:25 10° NW 19:55:19 30° NNE 19:55:21 30° NNE
BREEZE-M DEB (TANK) 4.0 19:42:35 10° W 19:56:30 62° SSW 19:56:30 62° SSW
ERS-1 Rocket 4.3 20:02:09 34° NW 20:02:09 34° NW 20:05:08 10° NNW
USA 267 3.7 20:02:29 50° N 20:02:40 50° N 20:08:55 10° WNW
CZ-4C R/B 3.9 19:59:35 10° WNW 20:03:52 25° N 20:04:22 24° N
BREEZE-M DEB (TANK) 4.4 19:58:45 10° WSW 20:04:07 72° SSE 20:29:23 10° ENE
Cosmos 2279 Rocket 4.4 19:58:31 10° NNW 20:03:21 55° NNW 20:03:21 55° NNW
Cosmos 2263 Rocket 3.3 20:09:22 10° SW 20:13:31 39° W 20:13:31 39° W
Cosmos 2344 3.8 20:26:49 10° WSW 20:33:48 58° NW 20:33:48 58° NW
Cosmos 2227 Rocket 4.3 20:42:22 10° W 20:46:46 22° NW 20:47:09 22° NNW
